Powrót do katalogu

HAWK-9B

AktywnyNaukaVLEO
NORAD 59450·PAYLOAD·🇺🇸 United States

Wystrzelony Apr 7, 2024 z Cape Canaveral Space Force Station

Loading…

Następne Przeloty (najbliższe 24 godziny)

TLE

ŚwieżeSource: Space-Track

Epoka: Sep 14, 2026, 05:22 UTC

1 59450U 24066J   26257.22362689  .00001161  00000-0  11219-3 0  9997
2 59450  45.6093 177.8854 0002492 144.8976 215.2070 14.99367766133190

Śledź HAWK-9B w czasie rzeczywistym z AllMySat

Download on the App Store